When you browse on this site, cookies collect data to enhance your experience and personalize the content and advertising you see.
Visit our Privacy Policy to learn more. By continuing to use the site, you agree to this use of cookies and data.
  • In United Kingdom
  • List of Countries
  • For 7 days
  • Water Temperature
  • Satellite Maps
  • Weather Map
  • Weather Widgets
  • user-avatar
    Login

    Hourly Weather Veytlus

    Today, 16 January, Wednesday

    Time Temperature Precipitation Wind Pressure Humidity
    00:00 -8°C° 0.1 mm 2 mps 727 mmHg 96%
    01:00 -8°C° 0.1 mm 2 mps 727 mmHg 96%
    02:00 -7°C° 0 mm 2 mps 727 mmHg 95%
    03:00 -7°C° 0.1 mm 2 mps 727 mmHg 95%
    04:00 -7°C° 0.1 mm 2 mps 728 mmHg 95%
    05:00 -7°C° 0.1 mm 2 mps 728 mmHg 95%
    06:00 -7°C° 0.1 mm 2 mps 728 mmHg 94%
    07:00 -7°C° 0.1 mm 3 mps 729 mmHg 93%
    08:00 -7°C° 0 mm 3 mps 729 mmHg 92%
    09:00 -7°C° 0.1 mm 3 mps 730 mmHg 91%
    10:00 -7°C° 0.1 mm 3 mps 730 mmHg 90%
    11:00 -7°C° 0.1 mm 4 mps 731 mmHg 89%
    12:00 -8°C° 0 mm 4 mps 731 mmHg 88%
    13:00 -8°C° 0 mm 4 mps 732 mmHg 86%
    14:00 -8°C° 0 mm 4 mps 732 mmHg 85%
    15:00 -9°C° 0 mm 4 mps 732 mmHg 86%
    16:00 -8°C° 0 mm 3 mps 733 mmHg 88%
    17:00 -9°C° 0 mm 3 mps 733 mmHg 89%
    18:00 -10°C° 0 mm 3 mps 733 mmHg 91%
    19:00 -9°C° 0 mm 2 mps 733 mmHg 94%
    20:00 -10°C° 0 mm 2 mps 733 mmHg 96%
    21:00 -10°C° 0 mm 2 mps 733 mmHg 96%
    22:00 -10°C° 0 mm 2 mps 733 mmHg 95%
    23:00 -10°C° 0 mm 2 mps 733 mmHg 94%

    Tomorrow, 17 January, Thursday

    Time Temperature Precipitation Wind Pressure Humidity
    00:00 -10°C° 0.1 mm 3 mps 732 mmHg 93%
    01:00 -9°C° 0.1 mm 3 mps 732 mmHg 92%
    02:00 -9°C° 0.1 mm 4 mps 731 mmHg 90%
    03:00 -8°C° 0.7 mm 4 mps 730 mmHg 91%
    04:00 -8°C° 0.7 mm 5 mps 729 mmHg 92%
    05:00 -7°C° 0.7 mm 5 mps 728 mmHg 93%
    06:00 -5°C° 0.7 mm 5 mps 727 mmHg 92%
    07:00 -4°C° 0.7 mm 5 mps 726 mmHg 92%
    08:00 -1°C° 0.7 mm 5 mps 725 mmHg 91%
    09:00 -1°C° 0.7 mm 5 mps 725 mmHg 92%
    10:00 0°C° 0.7 mm 5 mps 724 mmHg 92%
    11:00 0°C° 0.7 mm 5 mps 724 mmHg 92%
    12:00 0°C° 0.5 mm 5 mps 724 mmHg 92%
    13:00 0°C° 0.5 mm 5 mps 723 mmHg 92%
    14:00 0°C° 0.5 mm 5 mps 723 mmHg 92%
    15:00 -1°C° 1.1 mm 5 mps 722 mmHg 91%
    16:00 -1°C° 1.1 mm 5 mps 721 mmHg 90%
    17:00 -2°C° 1.1 mm 6 mps 720 mmHg 89%
    18:00 -2°C° 0.6 mm 6 mps 720 mmHg 88%
    19:00 -2°C° 0.6 mm 6 mps 720 mmHg 86%
    20:00 -1°C° 0.6 mm 7 mps 720 mmHg 84%
    21:00 -3°C° 0.6 mm 6 mps 721 mmHg 85%
    22:00 -4°C° 0.6 mm 6 mps 721 mmHg 85%
    23:00 -5°C° 0.6 mm 6 mps 722 mmHg 86%

    Day after tomorrow, 18 January, Friday

    Time Temperature Precipitation Wind Pressure Humidity
    00:00 -6°C° 0 mm 5 mps 724 mmHg 86%
    01:00 -7°C° 0 mm 5 mps 725 mmHg 86%
    02:00 -8°C° 0 mm 4 mps 727 mmHg 86%
    03:00 -8°C° 0 mm 4 mps 728 mmHg 87%
    04:00 -8°C° 0 mm 3 mps 728 mmHg 89%
    05:00 -9°C° 0 mm 3 mps 729 mmHg 91%
    06:00 -8°C° 0 mm 2 mps 729 mmHg 92%
    07:00 -9°C° 0 mm 2 mps 730 mmHg 93%
    08:00 -9°C° 0 mm 1 mps 730 mmHg 95%
    09:00 -9°C° 0 mm 1 mps 730 mmHg 93%
    10:00 -9°C° 0 mm 2 mps 731 mmHg 91%
    11:00 -9°C° 0 mm 2 mps 731 mmHg 90%
    12:00 -9°C° 0 mm 2 mps 731 mmHg 89%
    13:00 -10°C° 0 mm 3 mps 732 mmHg 88%
    14:00 -10°C° 0 mm 3 mps 732 mmHg 87%
    15:00 -10°C° 0 mm 3 mps 733 mmHg 88%
    16:00 -12°C° 0 mm 3 mps 733 mmHg 89%
    17:00 -12°C° 0 mm 3 mps 734 mmHg 89%
    18:00 -10°C° 0 mm 3 mps 734 mmHg 90%
    19:00 -10°C° 0 mm 3 mps 734 mmHg 91%
    20:00 -9°C° 0 mm 3 mps 735 mmHg 92%
    21:00 -8°C° 0.2 mm 3 mps 735 mmHg 91%
    22:00 -8°C° 0.2 mm 4 mps 735 mmHg 89%
    23:00 -8°C° 0.2 mm 4 mps 735 mmHg 88%

    19 January, Saturday

    Time Temperature Precipitation Wind Pressure Humidity
    00:00 -8°C° 0.1 mm 4 mps 736 mmHg 88%
    01:00 -8°C° 0.1 mm 3 mps 736 mmHg 89%
    02:00 -8°C° 0.1 mm 3 mps 736 mmHg 90%
    03:00 -9°C° 0 mm 3 mps 737 mmHg 90%
    04:00 -9°C° 0 mm 3 mps 737 mmHg 90%
    05:00 -10°C° 0 mm 3 mps 737 mmHg 90%
    06:00 -10°C° 0 mm 3 mps 738 mmHg 92%
    07:00 -9°C° 0 mm 3 mps 738 mmHg 93%
    08:00 -8°C° 0 mm 2 mps 739 mmHg 94%
    09:00 -8°C° 0 mm 3 mps 739 mmHg 91%
    10:00 -7°C° 0 mm 3 mps 739 mmHg 88%
    11:00 -8°C° 0 mm 4 mps 739 mmHg 85%
    12:00 -7°C° 0 mm 4 mps 739 mmHg 83%
    13:00 -7°C° 0 mm 4 mps 739 mmHg 81%
    14:00 -7°C° 0 mm 4 mps 739 mmHg 80%
    15:00 -7°C° 0 mm 4 mps 739 mmHg 81%
    16:00 -8°C° 0 mm 4 mps 739 mmHg 82%
    17:00 -8°C° 0 mm 4 mps 739 mmHg 84%
    18:00 -8°C° 0 mm 4 mps 739 mmHg 86%
    19:00 -9°C° 0 mm 4 mps 740 mmHg 87%
    20:00 -9°C° 0 mm 4 mps 740 mmHg 89%
    21:00 -8°C° 0 mm 3 mps 740 mmHg 90%
    22:00 -8°C° 0 mm 3 mps 740 mmHg 92%
    23:00 -8°C° 0 mm 3 mps 741 mmHg 93%

    20 January, Sunday

    Time Temperature Precipitation Wind Pressure Humidity
    00:00 -8°C° 0 mm 2 mps 741 mmHg 94%
    01:00 -8°C° 0 mm 2 mps 741 mmHg 94%
    02:00 -8°C° 0 mm 2 mps 742 mmHg 95%
    03:00 -8°C° 0 mm 2 mps 742 mmHg 95%
    04:00 -8°C° 0 mm 2 mps 741 mmHg 95%
    05:00 -8°C° 0 mm 2 mps 741 mmHg 95%
    06:00 -9°C° 0 mm 2 mps 741 mmHg 96%
    07:00 -9°C° 0 mm 2 mps 741 mmHg 96%
    08:00 -9°C° 0 mm 1 mps 741 mmHg 96%
    09:00 -9°C° 0 mm 2 mps 741 mmHg 95%
    10:00 -8°C° 0 mm 2 mps 741 mmHg 95%
    11:00 -7°C° 0 mm 2 mps 741 mmHg 94%
    12:00 -7°C° 0.1 mm 2 mps 741 mmHg 94%
    13:00 -7°C° 0.1 mm 2 mps 741 mmHg 94%
    14:00 -4°C° 0.1 mm 1 mps 741 mmHg 93%
    15:00 -6°C° 0 mm 1 mps 741 mmHg 95%
    16:00 -6°C° 0 mm 1 mps 741 mmHg 96%
    17:00 -6°C° 0 mm 1 mps 741 mmHg 97%
    18:00 -6°C° 0.1 mm 1 mps 741 mmHg 97%
    19:00 -6°C° 0.1 mm 1 mps 741 mmHg 97%
    20:00 -6°C° 0.1 mm 1 mps 741 mmHg 97%
    21:00 -6°C° 0.1 mm 1 mps 741 mmHg 97%
    22:00 -6°C° 0.1 mm 1 mps 742 mmHg 96%
    23:00 -7°C° 0.1 mm 2 mps 742 mmHg 96%

    21 January, Monday

    Time Temperature Precipitation Wind Pressure Humidity
    00:00 -8°C° 0 mm 2 mps 742 mmHg 96%
    01:00 -8°C° 0 mm 2 mps 742 mmHg 96%
    02:00 -8°C° 0 mm 2 mps 743 mmHg 96%
    03:00 -9°C° 0 mm 2 mps 743 mmHg 95%
    04:00 -9°C° 0 mm 2 mps 743 mmHg 94%
    05:00 -10°C° 0 mm 3 mps 743 mmHg 94%
    06:00 -12°C° 0 mm 3 mps 744 mmHg 94%
    07:00 -12°C° 0 mm 2 mps 744 mmHg 94%
    08:00 -13°C° 0 mm 2 mps 744 mmHg 94%
    09:00 -13°C° 0 mm 2 mps 745 mmHg 92%
    10:00 -13°C° 0 mm 2 mps 745 mmHg 91%
    11:00 -14°C° 0 mm 3 mps 746 mmHg 90%
    12:00 -14°C° 0 mm 3 mps 746 mmHg 88%
    13:00 -13°C° 0 mm 3 mps 746 mmHg 87%
    14:00 -13°C° 0 mm 3 mps 746 mmHg 85%
    15:00 -13°C° 0.1 mm 3 mps 747 mmHg 87%
    16:00 -12°C° 0.1 mm 2 mps 747 mmHg 89%
    17:00 -13°C° 0.1 mm 2 mps 747 mmHg 91%
    18:00 -13°C° 0 mm 2 mps 748 mmHg 92%
    19:00 -14°C° 0 mm 2 mps 748 mmHg 93%
    20:00 -14°C° 0 mm 2 mps 748 mmHg 94%
    21:00 -15°C° 0 mm 2 mps 748 mmHg 95%
    22:00 -16°C° 0 mm 2 mps 749 mmHg 96%
    23:00 -17°C° 0 mm 2 mps 749 mmHg 96%
    Show more